DW3611 Weather Reports


time (UTC)temp
F
wind
direction
speed
knots
gust
knots
rain 1hr
in
rain 24hr
in
rain mn
in
humidity
%
barometer
mb
20260506084529 74 18 1.7 5.2 0.00 0.01 0.01 90 1009.8
20260506084009 75 22 2.6 6.1 0.00 0.01 0.01 90 1009.7
20260506083508 75 17 2.6 8.7 0.00 0.01 0.01 90 1009.8
20260506082511 75 19 1.7 8.7 0.00 0.01 0.01 90 1009.7
20260506082016 75 23 2.6 8.7 0.00 0.01 0.01 90 1009.7
20260506080516 75 15 1.7 5.2 0.00 0.01 0.01 89 1009.7
20260506073512 75 19 0.9 7.8 0.01 0.02 0.01 89 1010.0
20260506073003 75 26 1.7 7.8 0.01 0.02 0.01 89 1010.0
20260506072002 75 21 0.9 7.8 0.01 0.02 0.01 89 1010.2
20260506071503 75 26 4.3 7.8 0.01 0.02 0.01 89 1010.2
20260506071008 75 19 2.6 7.8 0.01 0.02 0.01 89 1010.3
20260506070507 75 22 2.6 7.8 0.01 0.02 0.01 89 1010.3
20260506062503 75 17 0.9 4.3 0.00 0.01 0.00 89 1010.3
20260506062002 75 24 0.9 4.3 0.00 0.01 0.00 89 1010.2
20260506061503 75 22 0.9 3.5 0.00 0.01 0.00 89 1010.2
20260506061006 75 22 0.9 3.5 0.00 0.01 0.00 89 1010.3
20260506060506 75 18 0.0 7.0 0.00 0.01 0.00 89 1010.3
20260506051012 75 20 2.6 8.7 0.00 0.01 0.00 89 1010.3
20260506050506 75 24 3.5 7.8 0.00 0.01 0.00 89 1010.3
20260506045005 75 20 0.9 7.0 0.00 0.01 0.01 89 1010.2
20260506044502 75 20 1.7 7.0 0.00 0.01 0.01 89 1010.3
20260506044004 75 19 1.7 8.7 0.00 0.01 0.01 89 1010.3
20260506043008 75 22 3.5 10.4 0.00 0.01 0.01 89 1010.0
20260506042505 75 26 4.3 10.4 0.00 0.01 0.01 89 1010.1
20260506042010 75 24 3.5 9.6 0.00 0.01 0.01 89 1010.0
20260506041523 75 24 3.5 9.6 0.00 0.01 0.01 89 1010.1
20260506041009 75 22 3.5 9.6 0.00 0.01 0.01 89 1010.2
20260506040512 75 18 1.7 9.6 0.00 0.01 0.01 89 1010.1
20260506040017 75 23 3.5 7.8 0.00 0.01 0.01 89 1010.0
20260506035508 75 20 2.6 7.8 0.00 0.01 0.01 88 1009.8
20260506035009 75 26 2.6 7.8 0.00 0.01 0.01 88 1009.8
20260506033504 75 27 0.0 7.8 0.00 0.01 0.01 88 1009.7
20260506033029 75 21 2.6 7.0 0.00 0.01 0.01 88 1009.6
20260506032508 75 19 0.9 8.7 0.00 0.01 0.01 88 1009.5
20260506032007 75 22 3.5 8.7 0.00 0.01 0.01 88 1009.5
20260506031514 75 20 2.6 7.8 0.00 0.01 0.01 88 1009.6
20260506031007 75 21 1.7 7.8 0.00 0.01 0.01 88 1009.5
20260506030513 76 26 1.7 8.7 0.00 0.01 0.01 88 1009.5
20260506030030 76 25 2.6 8.7 0.00 0.01 0.01 88 1009.5
20260506025009 76 24 2.6 6.1 0.00 0.01 0.01 88 1009.6
20260506024522 76 28 1.7 7.0 0.00 0.01 0.01 88 1009.6
20260506024008 76 22 2.6 7.0 0.00 0.01 0.01 88 1009.4
20260506023508 76 19 1.7 7.8 0.00 0.01 0.01 88 1009.3
20260506022005 76 22 1.7 7.0 0.00 0.01 0.01 87 1008.9
20260506021008 76 22 1.7 8.7 0.00 0.01 0.01 87 1008.7
20260506020507 76 24 1.7 9.6 0.00 0.01 0.01 87 1008.6
20260506020017 76 23 3.5 12.2 0.00 0.01 0.01 87 1008.6
20260506015508 76 17 2.6 12.2 0.00 0.01 0.01 87 1008.5
20260506014008 76 25 1.7 9.6 0.00 0.01 0.01 87 1008.3
20260506013027 76 22 0.9 7.8 0.00 0.01 0.01 86 1008.1
20260506012509 76 17 1.7 11.3 0.00 0.01 0.01 86 1007.9
20260506012009 77 22 3.5 11.3 0.00 0.01 0.01 86 1007.9
20260506011526 77 24 1.7 7.0 0.00 0.01 0.01 86 1007.7
20260506011005 77 22 3.5 0.0 0.00 0.01 0.01 86 1007.8
20260506010513 0 0.0 0.0 0.00 0.01 0.01 1007.9
20260506010030 77 0.0 0.0 0.00 0.01 0.01 85 1007.9
20260506005513 77 0.0 0.0 0.00 0.01 0.01 85 1007.9
20260506004539 0 0.0 0.0 0.00 0.01 0.01 1007.6
20260506004013 0 0.0 0.0 0.00 0.01 0.01 1007.7
20260506003514 0 0.0 0.0 0.00 0.01 0.01 1007.8
20260506003031 0 0.0 0.0 0.00 0.01 0.01 1007.8
20260506002513 0 0.0 0.0 0.00 0.01 0.01 1007.7
20260506002014 0 0.0 0.0 0.00 0.01 0.01 1007.7
20260506001531 0 0.0 0.0 0.00 0.01 0.01 1007.7
20260506001014 0 0.0 0.0 0.00 0.01 0.01 1007.8
20260506000514 0 0.0 0.0 0.00 0.01 0.01 1007.8
20260506000039 0 0.0 0.0 0.00 0.01 0.01 1007.7
20260505235516 0 0.0 0.0 0.00 0.01 0.01 1007.7
20260505235013 0 0.0 0.0 0.00 0.01 0.01 1007.8
20260505234530 0 0.0 0.0 0.00 0.01 0.01 1007.7
20260505234014 0 0.0 0.0 0.00 0.01 0.01 1007.7
20260505233516 0 0.0 0.0 0.00 0.01 0.01 1007.7
20260505233029 0 0.0 0.0 0.00 0.01 0.01 1007.8
20260505232516 0 0.0 0.0 0.00 0.01 0.01 1007.8
20260505232013 0 0.0 0.0 0.00 0.01 0.01 1007.8
20260505231530 0 0.0 0.0 0.00 0.01 0.01 1007.8
20260505231013 0 0.0 0.0 0.00 0.01 0.01 1007.7
20260505230516 0 0.0 0.0 0.00 0.01 0.01 1007.7
20260505230034 0 0.0 0.0 0.00 0.01 0.01 1007.7
20260505225515 0 0.0 0.0 0.00 0.01 0.01 1007.8
20260505225015 0 0.0 0.0 0.00 0.01 0.01 1007.8
20260505224537 0 0.0 0.0 0.00 0.01 0.01 1007.6
20260505224014 0 0.0 0.0 0.00 0.01 0.01 1007.6
20260505223517 0 0.0 0.0 0.00 0.01 0.01 1007.7
20260505222507 0 0.0 0.0 0.00 0.01 0.01 1007.7
20260505222010 0 0.0 0.0 0.00 0.01 0.01 1007.7
20260505221516 0 0.0 0.0 0.00 0.01 0.01 1007.6
20260505221008 0 0.0 0.0 0.00 0.01 0.01 1007.6
20260505220506 0 0.0 0.0 0.00 0.01 0.01 1007.7
20260505220026 0 0.0 0.0 0.00 0.01 0.01 1007.7
20260505215510 0 0.0 0.0 0.00 0.01 0.01 1007.5
20260505215009 0 0.0 0.0 0.00 0.01 0.01 1007.7
20260505214519 0 0.0 0.0 0.00 0.01 0.01 1007.7
20260505214008 0 0.0 0.0 0.00 0.01 0.01 1007.8
20260505213507 0 0.0 0.0 0.00 0.01 0.01 1007.9
20260505212506 0 0.0 0.0 0.00 0.01 0.01 1008.0
20260505211516 0 0.0 0.0 0.00 0.01 0.01 1008.1
20260505211009 0 0.0 0.0 0.00 0.01 0.01 1008.1
20260505210508 0 0.0 0.0 0.00 0.01 0.01 1008.2
20260505210019 0 0.0 0.0 0.00 0.01 0.01 1008.2
20260505205515 0 0.0 0.0 0.00 0.01 0.01 1008.3
20260505205013 0 0.0 0.0 0.00 0.01 0.01 1008.4
20260505204527 0 0.0 0.0 0.00 0.01 0.01 1008.5
20260505204007 0 0.0 0.0 0.00 0.01 0.01 1008.7
20260505203506 0 0.0 0.0 0.00 0.01 0.01 1008.7
20260505203017 0 0.0 0.0 0.00 0.01 0.01 1008.9
20260505202509 0 0.0 0.0 0.00 0.01 0.01 1008.9
20260505202007 0 0.0 0.0 0.00 0.01 0.01 1008.9
20260505200024 0 0.0 0.0 0.00 0.01 0.01 1009.2
20260505195010 0 0.0 0.0 0.00 0.01 0.01 1009.3
20260505194519 0 0.0 0.0 0.00 0.01 0.01 1009.4
20260505194012 0 0.0 0.0 0.00 0.01 0.01 1009.4
20260505193507 0 0.0 0.0 0.00 0.01 0.01 1009.6
20260505193037 0 0.0 0.0 0.00 0.01 0.01 1009.6
20260505192506 0 0.0 0.0 0.00 0.01 0.01 1009.5
20260505192008 0 0.0 0.0 0.00 0.01 0.01 1009.5
20260505191519 0 0.0 0.0 0.00 0.01 0.01 1009.5
20260505191009 0 0.0 0.0 0.00 0.01 0.01 1009.7
20260505190507 0 0.0 0.0 0.00 0.01 0.01 1009.8
20260505190031 0 0.0 0.0 0.00 0.01 0.01 1009.8
20260505185515 0 0.0 0.0 0.00 0.01 0.01 1009.7
20260505185006 0 0.0 0.0 0.00 0.01 0.01 1009.8
20260505184525 0 0.0 0.0 0.00 0.01 0.01 1009.6
20260505184009 0 0.0 0.0 0.00 0.01 0.01 1009.6
20260505183507 0 0.0 0.0 0.00 0.01 0.01 1009.7
20260505183039 0 0.0 0.0 0.00 0.01 0.01 1009.8
20260505182507 0 0.0 0.0 0.00 0.01 0.01 1009.6
20260505182013 0 0.0 0.0 0.00 0.01 0.01 1009.6
20260505181522 0 0.0 0.0 0.00 0.01 0.01 1009.7
20260505181018 0 0.0 0.0 0.00 0.01 0.01 1009.7
20260505180511 0 0.0 0.0 0.00 0.01 0.01 1009.7
20260505180033 0 0.0 0.0 0.00 0.01 0.01 1009.8
20260505175508 0 0.0 0.0 0.00 0.01 0.01 1009.9
20260505175009 0 0.0 0.0 0.00 0.01 0.01 1010.1
20260505174530 0 0.0 0.0 0.00 0.01 0.01 1010.0
20260505174011 0 0.0 0.0 0.00 0.01 0.01 1010.2
20260505173509 0 0.0 0.0 0.00 0.01 0.01 1010.3
20260505173034 0 0.0 0.0 0.00 0.01 0.01 1010.2
20260505172511 0 0.0 0.0 0.00 0.01 0.01 1010.3
20260505172011 0 0.0 0.0 0.00 0.01 0.01 1010.4
20260505171530 0 0.0 0.0 0.00 0.01 0.01 1010.3
20260505171010 0 0.0 0.0 0.00 0.01 0.01 1010.4
20260505170514 0 0.0 0.0 0.00 0.01 0.01 1010.4
20260505170025 0 0.0 0.0 0.00 0.01 0.01 1010.5
20260505165512 0 0.0 0.0 0.00 0.01 0.01 1010.4
20260505165007 0 0.0 0.0 0.00 0.01 0.01 1010.4
20260505164533 0 0.0 0.0 0.00 0.01 0.01 1010.4
20260505164008 0 0.0 0.0 0.00 0.01 0.01 1010.3
20260505163510 0 0.0 0.0 0.00 0.01 0.01 1010.3
20260505163024 0 0.0 0.0 0.00 0.01 0.01 1010.2
20260505162509 0 0.0 0.0 0.00 0.01 0.01 1010.2
20260505162011 0 0.0 0.0 0.00 0.01 0.01 1010.1
20260505161525 0 0.0 0.0 0.00 0.01 0.01 1010.1
20260505161013 0 0.0 0.0 0.00 0.01 0.01 1010.2
20260505160508 0 0.0 0.0 0.00 0.01 0.01 1010.1
20260505153029 0 0.0 0.0 0.00 0.01 0.01 1010.2
20260505152509 0 0.0 0.0 0.00 0.01 0.01 1010.4
20260505152015 0 0.0 0.0 0.00 0.02 0.01 1010.3
20260505151525 0 0.0 0.0 0.00 0.02 0.01 1010.3
20260505151008 0 0.0 0.0 0.00 0.02 0.01 1010.2
20260505150517 0 0.0 0.0 0.00 0.02 0.01 1010.1
20260505140519 0 0.0 0.0 0.00 0.02 0.01 1009.9
20260505125010 0 0.0 0.0 0.00 0.02 0.01 1009.4
20260505124526 0 0.0 0.0 0.00 0.02 0.01 1009.4
20260505124009 0 0.0 0.0 0.00 0.02 0.01 1009.5
20260505123511 0 0.0 0.0 0.00 0.02 0.01 1009.4
20260505123045 0 0.0 0.0 0.00 0.02 0.01 1009.5
20260505122511 0 0.0 0.0 0.00 0.02 0.01 1009.5
20260505122013 0 0.0 0.0 0.00 0.02 0.01 1009.4
20260505121534 0 0.0 0.0 0.00 0.02 0.01 1009.4
20260505121010 0 0.0 0.0 0.00 0.02 0.01 1009.5
20260505120037 0 0.0 0.0 0.00 0.02 0.01 1009.5
20260505115512 68 0.0 0.0 0.00 0.02 0.01 90 1009.4
20260505115006 68 2.6 10.4 0.00 0.02 0.01 90 1009.3
20260505114507 68 30 3.5 8.7 0.00 0.02 0.01 90 1009.2
20260505114002 68 360 2.6 5.2 0.00 0.02 0.01 90 1009.3
20260505113503 68 360 2.6 7.0 0.00 0.02 0.01 90 1009.4
20260505113010 68 34 1.7 7.0 0.00 0.02 0.01 90 1009.3
20260505112507 68 360 1.7 7.0 0.00 0.02 0.01 90 1009.3
20260505112008 68 35 1.7 5.2 0.00 0.02 0.01 90 1009.3
20260505111507 68 30 1.7 4.3 0.00 0.02 0.01 90 1009.3
20260505111003 68 37 2.6 4.3 0.00 0.02 0.01 90 1009.2
20260505110502 67 35 1.7 4.3 0.00 0.02 0.01 90 1009.2
20260505102004 67 25 1.7 7.0 0.00 0.02 0.01 89 1009.3
20260505101515 67 30 2.6 7.0 0.00 0.02 0.01 89 1009.3
20260505101007 67 32 0.9 5.2 0.00 0.02 0.01 89 1009.3
20260505100507 67 32 1.7 5.2 0.00 0.02 0.01 89 1009.2
20260505100003 67 28 0.9 7.8 0.00 0.02 0.01 89 1009.4
20260505095502 68 28 1.7 8.7 0.00 0.02 0.01 89 1009.3
20260505095002 68 29 0.9 8.7 0.00 0.02 0.01 89 1009.4
20260505094504 67 32 0.9 7.0 0.00 0.02 0.01 89 1009.5
20260505094007 67 24 1.7 7.0 0.00 0.02 0.01 89 1009.6
20260505093005 67 23 0.9 5.2 0.00 0.02 0.01 89 1009.7
20260505092503 67 33 1.7 5.2 0.00 0.02 0.01 88 1009.8
20260505092007 67 34 0.9 5.2 0.00 0.02 0.01 88 1009.8
20260505091506 67 34 1.7 5.2 0.00 0.02 0.01 88 1009.8
20260505091009 67 36 1.7 5.2 0.00 0.02 0.01 88 1009.7
20260505090503 67 26 0.9 7.0 0.00 0.02 0.01 88 1009.8
20260505090043 67 360 0.0 7.0 0.00 0.02 0.01 88 1009.8
20260505085507 67 32 1.7 4.3 0.00 0.02 0.01 88 1009.9
20260505085009 67 26 1.7 5.2 0.01 0.02 0.01 88 1010.0